Tracking 35280 objects as of 7-Sep-2026
HD Live streaming from Space Station
objects crossing your sky now

IRIDIUM 33 DEB


IRIDIUM 33 DEB is no longer on orbit


NORAD ID: 37560
Int'l Code: 1997-051XV
Launch date: September 14, 1997
Source: United States (US)
Launch site: TYURATAM MISSILE AND SPACE COMPLEX (TTMTR)
Decay date: 2024-04-18

Note: This is SATELLITE DEBRIS
Your satellite tracking list
Your tracking list is empty




NASA's NSSDC Master Catalog

Two Line Element Set (TLE):
1 37560U 97051XV  23150.18182936  .00074381  00000-0  11135-1 0  9997
2 37560  86.3802 117.7220 0065775 148.2654 224.7104 14.72814567  1972
Source of the keplerian elements: AFSPC